User: anonymous   Login
Location: Unspecified
(0.0000°N, 0.0000°E)
Time: 17:02:06
(UTC+00:00)
Language:

GEOEYE 1 - Orbit

View from above orbital plane
View from above orbital plane
View from above satellite
View from above satellite

Ground track
Ground track

The orbit data is extracted from the following two-line orbital elements,

1 33331U 08042A   17019.20985279  .00000175  00000-0  42351-4 0  9999
2 33331  98.1255  96.5283 0010035  19.4746 340.6854 14.64123814447300
Epoch (UTC): 19 January 2017 05:02:11
Eccentricity: 0.0010035
inclination: 98.1255°
perigee height: 673 km
apogee height: 687 km
right ascension of ascending node: 96.5283°
argument of perigee: 19.4746°
revolutions per day: 14.64123814
mean anomaly at epoch: 340.6854°
orbit number at epoch: 44730

The dashed part of the orbit path shows where the satellite is in the earth's shadow,  

DLR